Home   Weather   Surat   Past weeks
Flag for India

Past Weather in Surat, Gujarat, India — Yesterday and Last 2 Weeks

Now
99 °F

Clear.


Feels Like: 94 °F
Forecast: 94 / 70 °F
Wind: 8 mph from West

Location: Ahmadabad Airport

Current Time: Mar 19, 2019 at 4:02:18 pm

Latest Report: Mar 19, 2019 at 3:00 pm


Visibility: 4 mi

Pressure: 29.80 "Hg

Humidity: 13%

Dew Point: 39 °F

Location of SuratLocation

Past Weather in Surat — Graph

°F

Surat Temperature Yesterday

Maximum temperature yesterday: 95 °F (at 2:00 pm)
Minimum temperature yesterday: 63 °F (at 6:00 am)
Average temperature yesterday: 81 °F

High & Low Weather Summary for the Past Weeks

 TemperatureHumidityPressure
High99 °F (Mar 19, 2:00 pm)69% (Mar 11, 5:30 am)30.09 "Hg (Mar 11, 5:30 am)
Low55 °F (Mar 5, 7:00 am)12% (Mar 18, 3:30 pm)29.77 "Hg (Mar 4, 4:30 pm)
Average77 °F32%29.91 "Hg
* Reported Mar 4 2:30 pm — Mar 19 2:30 pm, Surat. Weather by CustomWeather, © 2019

Note: Actual official high and low records may vary slightly from our data, if they occured in-between our weather recording intervals... More about our weather records

Advertising

Surat Weather History for the Previous 24 Hours

Scroll right to see more
 ConditionsComfort  
Time TempWeatherWind HumidityBarometerVisibility
2:30 pm
Tue, Mar 19
99 °FClear.3 mph13%29.80 "Hg4 mi
2:00 pm99 °FClear.6 mph13%29.83 "Hg4 mi
1:30 pm97 °FClear.6 mph13%29.83 "Hg4 mi
1:00 pm97 °FClear.7 mph12%29.83 "Hg4 mi
12:30 pm95 °FClear.2 mph13%29.86 "Hg3 mi
12:00 pm93 °FClear.5 mph14%29.86 "Hg3 mi
11:00 am90 °FClear.3 mph16%29.89 "Hg3 mi
10:30 am88 °FClear.6 mph19%29.89 "Hg3 mi
10:00 am84 °FClear.6 mph22%29.92 "Hg2 mi
9:30 am81 °FClear.7 mph24%29.92 "Hg2 mi
9:00 am79 °FClear.5 mph26%29.92 "Hg1 mi
8:30 am75 °FClear.3 mph27%29.89 "Hg1 mi
8:00 am72 °FClear.No wind29%29.89 "Hg1 mi
7:30 am68 °FClear.1 mph35%29.86 "Hg1 mi
7:00 am68 °FClear.No wind33%29.86 "Hg1 mi
6:30 am68 °FClear.No wind35%29.86 "Hg2 mi
6:00 am68 °FClear.No wind40%29.83 "Hg2 mi
5:30 am66 °FClear.No wind37%29.83 "Hg2 mi
5:00 am68 °FClear.No wind35%29.80 "Hg2 mi
4:30 am70 °FClear.No wind35%29.83 "Hg2 mi
4:00 am72 °FClear.No wind33%29.83 "Hg2 mi
3:30 am70 °FClear.5 mph31%29.83 "Hg2 mi
3:00 am70 °FClear.No wind38%29.83 "Hg2 mi
2:30 am70 °FClear.2 mph31%29.83 "Hg2 mi
2:00 am70 °FClear.No wind33%29.83 "Hg2 mi
1:30 am72 °FClear.No wind31%29.86 "Hg2 mi
1:00 am75 °FClear.No wind27%29.86 "Hg2 mi
12:30 am75 °FClear.2 mph27%29.86 "Hg2 mi
12:00 am75 °FClear.No wind27%29.89 "Hg2 mi
11:30 pm
Mon, Mar 18
75 °FClear.No wind29%29.89 "Hg2 mi
11:00 pm77 °FClear.No wind28%29.89 "Hg2 mi
10:30 pm79 °FClear.No wind24%29.89 "Hg2 mi
10:00 pm81 °FClear.No wind23%29.92 "Hg2 mi
9:30 pm81 °FClear.3 mph24%29.92 "Hg2 mi
9:00 pm82 °FClear.No wind23%29.89 "Hg2 mi
8:30 pm82 °FClear.No wind21%29.89 "Hg2 mi
8:00 pm84 °FClear.3 mph20%29.89 "Hg2 mi
7:30 pm86 °FClear.5 mph19%29.86 "Hg2 mi
7:00 pm88 °FClear.3 mph17%29.86 "Hg2 mi
6:30 pm90 °FClear.3 mph16%29.86 "Hg3 mi
6:00 pm93 °FClear.7 mph14%29.86 "Hg4 mi
5:30 pm93 °FClear.8 mph14%29.86 "Hg4 mi
5:00 pm95 °FClear.7 mph12%29.86 "Hg4 mi
4:30 pm95 °FClear.7 mph13%29.86 "Hg4 mi
4:00 pm95 °FClear.3 mph13%29.86 "Hg4 mi
Weather by CustomWeather, © 2019

See weather overview